Regional Weather Roundup
Issued by NWS State College, PA

Home | Current Version | Previous Version | Text Only | Print | Product List | Glossary On
Versions: 1 2 3 4 5 6 7 8 9 10 11 12 13 14 15 16 17 18 19 20 21 22 23 24 25 26 27 28 29 30 31 32 33 34 35 36 37 38 39 40 41 42 43 44 45 46 47 48 49 50
000
ASUS41 KCTP 010803
RWRCTP

REGIONAL WEATHER ROUNDUP
NATIONAL WEATHER SERVICE STATE COLLEGE PA
400 AM EDT WED OCT 01 2014

Note: "fair" indicates few or no clouds below 12,000 feet with no
significant weather and/or obstructions to visibility.

* = STATION THAT DOES NOT REPORT PRECIPITATION /E.G. RAIN...SNOW...ETC/
    THUNDER OR FOG.

PAZ002>004-007>009-013>016-020>023-029>032-010900-
WESTERN PENNSYLVANIA

CITY           SKY/WX    TMP DP  RH WIND       PRES   REMARKS
ERIE           CLOUDY    57  54  89 S5        29.98S
MEADVILLE      FOG       55  53  93 CALM      29.99F VSB 1/4
FRANKLIN*      CLOUDY    54  52  94 N5        30.00S VSB<1/4
NEW CASTLE     FOG       55  55 100 N3        30.00R VSB 1/2
BEAVER COUNTY  NOT AVBL
BUTLER*        CLOUDY    52  48  87 CALM      29.99S VSB 1/2
PITTSBURGH INT CLOUDY    57  56  96 NE3       29.96F
PITTSBURGH     FOG       56  53  90 N3        29.95F VSB<1/4
INDIANA*       CLOUDY    54  52  94 CALM      30.01S
LATROBE        CLEAR     54  54 100 CALM      29.98R
WASHINGTON CO* CLOUDY    55  54  94 CALM      29.98S
$$

PAZ004>006-010>012-017>019-024>028-033>037-041-042-045-046-049>053-010900-
CENTRAL PENNSYLVANIA

CITY           SKY/WX    TMP DP  RH WIND       PRES   REMARKS
BRADFORD       FOG       50  48  93 CALM      30.00S VSB 1/4
DUBOIS         FOG       52  52 100 E6        29.98S VSB 1/4
CLEARFIELD     FOG       53  53 100 N6        29.99F VSB 1/4
JOHNSTOWN      CLEAR     53  50  89 CALM      29.98S
ALTOONA        FOG       56  56 100 NE5       29.98F VSB 1/4
STATE COLLEGE  FOG       53  53  99 CALM      29.98F VSB 1/2
WILLIAMSPORT   LGT RAIN  62  58  86 N3        29.97F
SELINSGROVE    CLOUDY    60  58  92 CALM      29.98F
FT INDIANTOWN  PTCLDY    58  58 100 N2        29.98F
CAPITAL CITY   CLOUDY    61  59  93 CALM      29.98F
HARRISBURG     CLOUDY    60  59  96 CALM      29.97F
YORK           CLOUDY    60  59  96 CALM      29.98F FOG
$$

PAZ038>040-043-044-047-048-054-055-060>062-067>071-010900-
EASTERN PENNSYLVANIA

CITY           SKY/WX    TMP DP  RH WIND       PRES   REMARKS
SCRANTON       LGT RAIN  62  56  80 CALM      30.00F
MOUNT POCONO   CLOUDY    57  54  89 CALM      30.02F
ALLENTOWN      CLOUDY    61  58  90 NE3       29.99F
QUAKERTOWN*    PTSUNNY   59  57  94 CALM      30.00S
READING        LGT RAIN  63  59  87 NE3       29.96F
LANCASTER      PTCLDY    58  57  97 N3        29.97F FOG
COATESVILLE    CLOUDY    59  59 100 CALM      29.99F
POTTSTOWN      CLOUDY    61  58  90 NE3       30.00F
BLUE BELL      MOCLDY    61  59  94 CALM      29.98R
DOYLESTOWN     CLOUDY    60  58  92 N5        29.98F
WILLOW GROVE   NOT AVBL
NORTH PHILA    CLOUDY    64  57  78 NE7       29.99S
PHILADELPHIA   LGT RAIN  64  59  83 NE7       29.97F
$$



USA.gov is the U.S. government's official web portal to all federal, state and local government web resources and services.